• In Uzbekistan
  • List of Countries
  • For 7 days
  • Water Temperature
  • Satellite Maps
  • Weather Map
  • Weather Widgets
  • user-avatar
    Login

    Hourly Weather Naftalan

    Today, 18 August, Friday

    Time Temperature Precipitation Wind Pressure Humidity
    00:00 +28°C° 0 mm 3 mps 759 mmHg 56%
    01:00 +28°C° 0.2 mm 3 mps 759 mmHg 58%
    02:00 +28°C° 0.2 mm 3 mps 759 mmHg 60%
    03:00 +27°C° 0 mm 3 mps 759 mmHg 62%
    04:00 +28°C° 0 mm 3 mps 759 mmHg 60%
    05:00 +28°C° 0 mm 3 mps 759 mmHg 58%
    06:00 +28°C° 0 mm 3 mps 760 mmHg 56%
    07:00 +30°C° 0 mm 3 mps 760 mmHg 49%
    08:00 +33°C° 0 mm 3 mps 760 mmHg 43%
    09:00 +35°C° 0 mm 3 mps 760 mmHg 32%
    10:00 +36°C° 0 mm 3 mps 760 mmHg 30%
    11:00 +37°C° 0 mm 3 mps 760 mmHg 28%
    12:00 +38°C° 0 mm 4 mps 760 mmHg 26%
    13:00 +40°C° 0 mm 4 mps 759 mmHg 27%
    14:00 +40°C° 0 mm 5 mps 759 mmHg 28%
    15:00 +40°C° 0 mm 5 mps 759 mmHg 31%
    16:00 +37°C° 0 mm 5 mps 759 mmHg 35%
    17:00 +36°C° 0 mm 5 mps 760 mmHg 40%
    18:00 +34°C° 0 mm 5 mps 760 mmHg 44%
    19:00 +33°C° 0 mm 4 mps 760 mmHg 47%
    20:00 +32°C° 0 mm 4 mps 761 mmHg 50%
    21:00 +30°C° 0 mm 3 mps 761 mmHg 52%
    22:00 +30°C° 0 mm 4 mps 761 mmHg 52%
    23:00 +29°C° 0 mm 4 mps 762 mmHg 52%

    Tomorrow, 19 August, Saturday

    Time Temperature Precipitation Wind Pressure Humidity
    00:00 +28°C° 0 mm 4 mps 762 mmHg 52%
    01:00 +28°C° 0 mm 4 mps 762 mmHg 51%
    02:00 +28°C° 0 mm 4 mps 762 mmHg 50%
    03:00 +27°C° 0 mm 4 mps 762 mmHg 49%
    04:00 +27°C° 0 mm 4 mps 762 mmHg 48%
    05:00 +28°C° 0 mm 4 mps 762 mmHg 47%
    06:00 +28°C° 0 mm 4 mps 762 mmHg 46%
    07:00 +30°C° 0 mm 4 mps 762 mmHg 40%
    08:00 +33°C° 0 mm 4 mps 763 mmHg 35%
    09:00 +35°C° 0 mm 4 mps 763 mmHg 29%
    10:00 +36°C° 0 mm 4 mps 763 mmHg 27%
    11:00 +38°C° 0 mm 4 mps 763 mmHg 25%
    12:00 +39°C° 0 mm 3 mps 762 mmHg 22%
    13:00 +40°C° 0 mm 4 mps 762 mmHg 22%
    14:00 +40°C° 0 mm 5 mps 762 mmHg 21%
    15:00 +40°C° 0 mm 6 mps 762 mmHg 21%
    16:00 +39°C° 0 mm 5 mps 762 mmHg 23%
    17:00 +36°C° 0 mm 5 mps 762 mmHg 26%
    18:00 +35°C° 0 mm 5 mps 762 mmHg 28%
    19:00 +33°C° 0 mm 4 mps 763 mmHg 36%
    20:00 +32°C° 0 mm 4 mps 763 mmHg 43%
    21:00 +29°C° 0 mm 3 mps 763 mmHg 50%
    22:00 +29°C° 0 mm 2 mps 763 mmHg 51%
    23:00 +28°C° 0 mm 2 mps 763 mmHg 51%

    Day after tomorrow, 20 August, Sunday

    Time Temperature Precipitation Wind Pressure Humidity
    00:00 +28°C° 0 mm 2 mps 763 mmHg 51%
    01:00 +28°C° 0 mm 2 mps 763 mmHg 51%
    02:00 +27°C° 0 mm 1 mps 763 mmHg 51%
    03:00 +27°C° 0 mm 1 mps 763 mmHg 51%
    04:00 +27°C° 0 mm 1 mps 763 mmHg 48%
    05:00 +27°C° 0 mm 1 mps 763 mmHg 46%
    06:00 +28°C° 0 mm 1 mps 763 mmHg 44%
    07:00 +30°C° 0 mm 1 mps 763 mmHg 38%
    08:00 +32°C° 0 mm 1 mps 763 mmHg 32%
    09:00 +34°C° 0 mm 1 mps 763 mmHg 26%
    10:00 +37°C° 0 mm 3 mps 763 mmHg 23%
    11:00 +38°C° 0 mm 4 mps 763 mmHg 21%
    12:00 +40°C° 0 mm 5 mps 762 mmHg 19%
    13:00 +40°C° 0 mm 6 mps 762 mmHg 22%
    14:00 +40°C° 0 mm 6 mps 762 mmHg 24%
    15:00 +39°C° 0 mm 7 mps 762 mmHg 26%
    16:00 +38°C° 0 mm 6 mps 762 mmHg 31%
    17:00 +35°C° 0 mm 5 mps 762 mmHg 36%
    18:00 +33°C° 0 mm 5 mps 761 mmHg 41%
    19:00 +32°C° 0 mm 4 mps 762 mmHg 48%
    20:00 +30°C° 0 mm 4 mps 762 mmHg 55%
    21:00 +29°C° 0 mm 3 mps 762 mmHg 61%
    22:00 +28°C° 0 mm 3 mps 762 mmHg 61%
    23:00 +28°C° 0 mm 2 mps 762 mmHg 61%

    21 August, Monday

    Time Temperature Precipitation Wind Pressure Humidity
    00:00 +28°C° 0 mm 2 mps 762 mmHg 61%
    01:00 +27°C° 0 mm 2 mps 761 mmHg 60%
    02:00 +27°C° 0 mm 2 mps 761 mmHg 59%
    03:00 +27°C° 0 mm 1 mps 761 mmHg 59%
    04:00 +27°C° 0 mm 2 mps 761 mmHg 57%
    05:00 +27°C° 0 mm 2 mps 761 mmHg 55%
    06:00 +28°C° 0 mm 2 mps 761 mmHg 54%
    07:00 +29°C° 0 mm 2 mps 761 mmHg 47%
    08:00 +31°C° 0 mm 2 mps 761 mmHg 40%
    09:00 +34°C° 0 mm 2 mps 761 mmHg 34%
    10:00 +36°C° 0 mm 2 mps 761 mmHg 29%
    11:00 +37°C° 0 mm 3 mps 760 mmHg 25%
    12:00 +39°C° 0 mm 3 mps 760 mmHg 21%
    13:00 +40°C° 0 mm 4 mps 760 mmHg 20%
    14:00 +41°C° 0 mm 4 mps 759 mmHg 20%
    15:00 +41°C° 0 mm 5 mps 759 mmHg 19%
    16:00 +39°C° 0 mm 5 mps 759 mmHg 24%
    17:00 +36°C° 0 mm 4 mps 759 mmHg 28%
    18:00 +35°C° 0 mm 4 mps 759 mmHg 32%
    19:00 +33°C° 0 mm 4 mps 759 mmHg 39%
    20:00 +31°C° 0 mm 3 mps 759 mmHg 46%
    21:00 +29°C° 0 mm 2 mps 759 mmHg 53%
    22:00 +29°C° 0 mm 2 mps 759 mmHg 54%
    23:00 +28°C° 0 mm 2 mps 759 mmHg 56%

    22 August, Tuesday

    Time Temperature Precipitation Wind Pressure Humidity
    00:00 +28°C° 0 mm 2 mps 759 mmHg 57%
    01:00 +28°C° 0 mm 2 mps 759 mmHg 56%
    02:00 +27°C° 0 mm 2 mps 759 mmHg 56%
    03:00 +27°C° 0 mm 1 mps 759 mmHg 56%
    04:00 +27°C° 0 mm 1 mps 759 mmHg 54%
    05:00 +28°C° 0 mm 2 mps 759 mmHg 53%
    06:00 +28°C° 0 mm 2 mps 759 mmHg 51%
    07:00 +30°C° 0 mm 2 mps 759 mmHg 44%
    08:00 +32°C° 0 mm 2 mps 760 mmHg 38%
    09:00 +35°C° 0 mm 2 mps 760 mmHg 31%
    10:00 +37°C° 0 mm 2 mps 759 mmHg 27%
    11:00 +38°C° 0 mm 3 mps 759 mmHg 24%
    12:00 +41°C° 0 mm 4 mps 759 mmHg 20%
    13:00 +41°C° 0 mm 4 mps 758 mmHg 20%
    14:00 +41°C° 0 mm 5 mps 758 mmHg 20%
    15:00 +41°C° 0 mm 6 mps 758 mmHg 20%
    16:00 +39°C° 0 mm 6 mps 758 mmHg 25%
    17:00 +36°C° 0 mm 6 mps 758 mmHg 30%
    18:00 +34°C° 0 mm 5 mps 758 mmHg 36%
    19:00 +33°C° 0 mm 5 mps 759 mmHg 42%
    20:00 +30°C° 0 mm 4 mps 759 mmHg 49%
    21:00 +29°C° 0 mm 3 mps 759 mmHg 56%
    22:00 +29°C° 0 mm 3 mps 759 mmHg 56%
    23:00 +28°C° 0 mm 3 mps 759 mmHg 56%

    23 August, Wednesday

    Time Temperature Precipitation Wind Pressure Humidity
    00:00 +28°C° 0 mm 2 mps 759 mmHg 56%
    01:00 +28°C° 0 mm 2 mps 759 mmHg 55%
    02:00 +27°C° 0 mm 2 mps 759 mmHg 54%
    03:00 +27°C° 0 mm 2 mps 759 mmHg 53%
    04:00 +27°C° 0 mm 2 mps 760 mmHg 53%
    05:00 +27°C° 0 mm 1 mps 760 mmHg 53%
    06:00 +28°C° 0 mm 1 mps 760 mmHg 53%
    07:00 +30°C° 0 mm 2 mps 760 mmHg 44%
    08:00 +32°C° 0 mm 2 mps 761 mmHg 36%
    09:00 +36°C° 0 mm 3 mps 761 mmHg 27%
    10:00 +37°C° 0 mm 4 mps 761 mmHg 24%
    11:00 +39°C° 0 mm 5 mps 760 mmHg 21%
    12:00 +41°C° 0 mm 6 mps 760 mmHg 19%
    13:00 +40°C° 0 mm 6 mps 760 mmHg 19%
    14:00 +40°C° 0 mm 7 mps 760 mmHg 20%
    15:00 +39°C° 0 mm 7 mps 760 mmHg 21%
    16:00 +36°C° 0 mm 6 mps 760 mmHg 25%
    17:00 +35°C° 0 mm 6 mps 760 mmHg 29%
    18:00 +33°C° 0 mm 5 mps 760 mmHg 33%
    19:00 +32°C° 0 mm 4 mps 761 mmHg 40%
    20:00 +30°C° 0 mm 4 mps 761 mmHg 48%
    21:00 +28°C° 0 mm 3 mps 761 mmHg 56%
    22:00 +28°C° 0 mm 3 mps 761 mmHg 55%
    23:00 +28°C° 0 mm 3 mps 761 mmHg 55%
    Show more